Mobridge, SD

4:11 PM CDT on October 23, 2019 (GMT -0500)
Mobridge Municipal

Weather History for KMBG - September, 2019

Change the Weather History Date:

Monday, September 16, 2019

  Actual Average Record
Temperature  
Mean Temperature 77 °F 61 °F  
Max Temperature 86 °F 74 °F 95 °F (2002)
Min Temperature 67 °F 48 °F 30 °F (1916)
Degree Days  
Heating Degree Days 0    
Month to date heating degree days 31  
Since 1 July heating degree days 53  
Cooling Degree Days 12    
Month to date cooling degree days 46  
Year to date cooling degree days 619  
Growing Degree Days 25 (Base 50)    
Moisture  
Dew Point 64 °F    
Average Humidity 71    
Maximum Humidity 87    
Minimum Humidity 55    
Precipitation  
Precipitation 0.00 in 0.06 in 1.18 in (1986)
Month to date precipitation 3.10 0.80  
Year to date precipitation 23.62 14.71  
Snow  
Snow 0.00 in - - ()
Month to date snowfall 0.0  
Since 1 July snowfall 0.0  
Snow Depth 0.00 in    
Sea Level Pressure  
Sea Level Pressure 29.70 in    
Wind  
Wind Speed 12 mph (SSE)    
Max Wind Speed 21 mph    
Max Gust Speed 26 mph    
Visibility 10 miles    
Events      
T = Trace of Precipitation, MM = Missing Value Source: NWS Daily Summary

Daily Weather History Graph

Daily Weather History Graph

Search for Another Location

Airport or City:

Astronomy

Sep. 16, 2019 Rise Set
Actual Time 7:21 AM CDT 7:51 PM CDT
Civil Twilight 6:51 AM CDT 8:20 PM CDT
Nautical Twilight 6:16 AM CDT 8:55 PM CDT
Astronomical Twilight 5:39 AM CDT 9:32 PM CDT
Moon 9:20 PM CDT (9/16) 9:34 AM CDT (9/16)
Length of Visible Light 13h 29m
Length of Day
12h 30m
Waning Gibbous, 94% of the Moon is Illuminated
Sep 16
Waning Gibbous
Sep 21
Last Quarter
Sep 28
New
Oct 5
First Quarter
Oct 13
Full

Hourly Weather History & Observations

Time (CDT) Temp. Heat Index Dew Point Humidity Pressure Visibility Wind Dir Wind Speed Gust Speed Precip Events Conditions
12:52 AM 71.1 °F - 62.1 °F 73% 29.75 in 10.0 mi SE 11.5 mph - N/A   Clear
1:52 AM 72.0 °F - 62.1 °F 71% 29.75 in 10.0 mi SSE 16.1 mph - N/A   Clear
2:52 AM 70.0 °F - 63.0 °F 78% 29.74 in 10.0 mi SSE 13.8 mph - N/A   Clear
3:52 AM 69.1 °F - 63.0 °F 81% 29.73 in 10.0 mi SSE 12.7 mph - N/A   Clear
4:52 AM 68.0 °F - 62.1 °F 81% 29.73 in 10.0 mi SSE 9.2 mph - N/A   Clear
5:52 AM 66.9 °F - 62.1 °F 84% 29.72 in 10.0 mi SSE 13.8 mph - N/A   Clear
6:52 AM 66.9 °F - 62.1 °F 84% 29.73 in 10.0 mi SSE 12.7 mph - N/A   Clear
7:52 AM 66.9 °F - 62.1 °F 84% 29.73 in 10.0 mi SSE 10.4 mph - N/A   Clear
8:52 AM 71.1 °F - 63.0 °F 75% 29.73 in 10.0 mi SSE 11.5 mph - N/A   Clear
9:52 AM 73.9 °F - 63.0 °F 68% 29.73 in 10.0 mi SSE 12.7 mph - N/A   Clear
10:52 AM 73.9 °F - 64.0 °F 71% 29.73 in 10.0 mi South 10.4 mph - N/A   Clear
11:52 AM 80.1 °F 81.9 °F 64.9 °F 60% 29.72 in 10.0 mi SSE 10.4 mph - N/A   Clear
12:52 PM 82.9 °F 85.4 °F 66.9 °F 58% 29.70 in 10.0 mi SE 10.4 mph - N/A   Clear
1:52 PM 84.0 °F 86.3 °F 66.0 °F 55% 29.69 in 10.0 mi SSE 15.0 mph - N/A   Clear
2:52 PM 84.0 °F 86.3 °F 66.0 °F 55% 29.68 in 10.0 mi SSE 12.7 mph - N/A   Clear
3:52 PM 84.9 °F 88.2 °F 68.0 °F 57% 29.66 in 10.0 mi SSE 12.7 mph - N/A   Clear
4:52 PM 84.9 °F 88.2 °F 68.0 °F 57% 29.66 in 10.0 mi SSE 11.5 mph 23.0 mph N/A   Clear
5:52 PM 80.1 °F 82.1 °F 66.0 °F 62% 29.65 in 10.0 mi SSE 12.7 mph - N/A   Clear
6:52 PM 81.0 °F 83.0 °F 66.0 °F 60% 29.65 in 10.0 mi SSE 18.4 mph - N/A   Clear
7:52 PM 75.9 °F - 64.9 °F 69% 29.65 in 10.0 mi SE 12.7 mph - N/A   Clear
8:52 PM 75.0 °F - 64.9 °F 71% 29.66 in 10.0 mi SE 13.8 mph - N/A   Clear
9:52 PM 73.0 °F - 64.0 °F 73% 29.66 in 10.0 mi SE 10.4 mph - N/A   Clear
10:52 PM 70.0 °F - 63.0 °F 78% 29.66 in 10.0 mi SE 6.9 mph - N/A   Clear
11:52 PM 71.1 °F - 64.0 °F 78% 29.64 in 10.0 mi SSE 6.9 mph - N/A   Clear